Location: Sark
(49.4440°N, 2.3620°W)
Time: 13:10:03
(UTC+00:00)

OTV 5 (USA 277) - Visible Passes

Search period start: 13 December 2017 00:00
Search period end: 23 December 2017 00:00
Orbit: 404 x 417 km, 43.0° (Epoch: 07 September)

Date Brightness Start Highest point End Pass type
(mag) Time Alt. Az. Time Alt. Az. Time Alt. Az.
13 Dec ? 16:59:37 10° WSW 17:02:26 24° S 17:05:14 10° SE visible
13 Dec ? 18:37:50 10° SW 18:39:02 12° SSW 18:40:15 10° S visible
14 Dec ? 17:46:11 10° WSW 17:48:10 15° SSW 17:50:10 10° SSE visible
15 Dec ? 16:54:53 10° WSW 16:57:17 18° SSW 16:59:41 10° SSE visible
17 Dec ? 16:50:53 10° SW 16:52:03 11° SSW 16:53:14 10° S visible
